• Join FlightAware (Why Join?)
  • Login
  • US Flag 
Gobble Gobble! 
07:23AM EST


 

Airport Tracker/Info


-or-


 

Live Flight TrackerFlight Track Log ✈ SKW6402 ✈ 07-May-2013 ✈ KSFO - KEUG

Flight Track Log - Related Links

Times and Time Zones

All times are in EDT time to prevent confusion due to time zone crossing. See the SKW6402 flight status page for this flight to view local times or setup timezone preferences in your user account.

Time Position Orientation Groundspeed Altitude Reporting Facility
EDT Latitude Longitude Course Direction KTS MPH feet Rate Location/Type
06:11PM 37.6378 -122.3589 North 163 188 32,000  Level Oakland Center
06:12PM 37.6703 -122.3153 47° Northeast 192 221 2,600 -12,780 Descending Oakland Center
06:13PM 37.7197 -122.2739 34° Northeast 215 247 5,900 3,240 Climbing Oakland Center
06:14PM 37.6441 -122.4436 120° Southeast  Level FlightAware Approximate
06:14PM 37.7828 -122.2719 North 226 260 9,200  Level Oakland Center
06:15PM 37.6715 -122.3606 North  Level FlightAware Approximate
06:15PM 37.8575 -122.2700 North 226 260 12,400  Level Oakland Center
06:16PM 37.7944 -122.3500 North  Level FlightAware Approximate
06:16PM 37.9217 -122.2686 North 230 265 14,600  Level Oakland Center
06:17PM 37.8936 -122.3500 North  Level FlightAware Approximate
06:17PM 37.9936 -122.2675 North 256 295 16,300  Level Oakland Center
06:18PM 38.0731 -122.2728 357° North 284 327 17,700 1,380 Climbing Oakland Center
06:19PM 38.1575 -122.2850 354° North 305 351 19,200 1,380 Climbing Oakland Center
06:20PM 38.2456 -122.2981 353° North 318 366 20,600 1,380 Climbing Oakland Center
06:21PM 38.3364 -122.3111 354° North 327 376 22,100 1,440 Climbing Oakland Center
06:22PM 38.4475 -122.3267 354° North 334 384 23,600 1,260 Climbing Oakland Center
06:23PM 38.5433 -122.3408 353° North 344 396 24,700 1,080 Climbing Oakland Center
06:24PM 38.6419 -122.3550 354° North 354 407 25,800 1,020 Climbing Oakland Center
06:25PM 38.7425 -122.3719 353° North 361 415 26,800 1,020 Climbing Oakland Center
06:26PM 38.8458 -122.3856 354° North 370 426 27,900 1,020 Climbing Oakland Center
06:28PM 38.9500 -122.4003 354° North 374 430 28,900 960 Climbing Oakland Center
06:29PM 39.0544 -122.4167 353° North 376 433 29,900 780 Climbing Oakland Center
06:30PM 39.1597 -122.4303 354° North 379 436 30,600 540 Climbing Oakland Center
06:31PM 39.2644 -122.4478 353° North 380 437 31,100 420 Climbing Oakland Center
06:32PM 39.3728 -122.4633 354° North 388 447 31,500 360 Climbing Oakland Center
06:33PM 39.4944 -122.4811 354° North 397 457 31,900 240 Climbing Oakland Center
06:34PM 39.6064 -122.4981 353° North 403 464 32,000  Climbing Oakland Center
06:35PM 39.7178 -122.5153 353° North 403 464 32,000  Level Oakland Center
06:36PM 39.8306 -122.5314 354° North 404 465 32,000  Level Oakland Center
06:37PM 39.9414 -122.5500 353° North 400 460 32,000  Level Oakland Center
06:38PM 40.0519 -122.5678 353° North 396 456 32,000  Level Oakland Center
06:39PM 40.1617 -122.5836 354° North 391 450 32,000  Level Oakland Center
06:40PM 40.2689 -122.6000 353° North 384 442 32,000  Level Oakland Center
06:41PM 40.3750 -122.6158 354° North 382 440 32,000  Level Oakland Center
06:42PM 40.4825 -122.6319 353° North 386 444 32,000  Level Oakland Center
06:43PM 40.5900 -122.6478 354° North 388 447 32,000  Level Oakland Center
06:44PM 40.7206 -122.6678 353° North 394 453 32,000  Level Oakland Center
06:45PM 40.8308 -122.6836 354° North 398 458 32,000  Level Oakland Center
06:46PM 40.9406 -122.7011 353° North 398 458 32,000  Level Oakland Center
06:47PM 41.0503 -122.7167 354° North 397 457 32,000  Level Oakland Center
06:48PM 41.1594 -122.7347 353° North 394 453 32,000  Level Oakland Center
06:49PM 41.2258 -122.7442 354° North 397 457 32,000  Level Seattle Center
06:50PM 41.3350 -122.7617 353° North 396 456 32,000  Level Seattle Center
06:51PM 41.4550 -122.7808 353° North 396 456 32,000  Level Seattle Center
06:52PM 41.5653 -122.7986 353° North 398 458 32,000  Level Seattle Center
06:53PM 41.6756 -122.8153 354° North 397 457 32,000  Level Seattle Center
06:54PM 41.7856 -122.8342 353° North 397 457 32,000  Level Seattle Center
06:55PM 41.8950 -122.8511 353° North 395 455 32,000  Level Seattle Center
06:56PM 42.0053 -122.8689 353° North 394 453 32,000  Level Seattle Center
06:57PM 42.1142 -122.8864 353° North 393 452 32,000  Level Seattle Center
06:58PM 42.2233 -122.9036 353° North 395 455 32,000 -360 Level Seattle Center
06:59PM 42.3333 -122.9228 353° North 397 457 31,300 -1,380 Descending Seattle Center
07:00PM 42.4433 -122.9392 354° North 396 456 29,300 -2,040 Descending Seattle Center
07:01PM 42.5503 -122.9564 353° North 387 445 27,300 -1,980 Descending Seattle Center
07:02PM 42.6531 -122.9733 353° North 374 430 25,300 -1,800 Descending Seattle Center
07:03PM 42.7611 -122.9928 352° North 344 396 23,700 -1,500 Descending Seattle Center
07:04PM 42.8497 -123.0069 353° North 324 373 22,300 -1,560 Descending Seattle Center
07:05PM 42.9353 -123.0206 353° North 311 358 20,600 -1,740 Descending Seattle Center
07:06PM 43.0206 -123.0344 353° North 308 354 18,800 -1,380 Descending Seattle Center
07:07PM 43.1031 -123.0497 352° North 301 346 17,800 -1,140 Descending Seattle Center
07:08PM 43.1817 -123.0617 354° North 287 330 16,600 -1,260 Descending Seattle Center
07:09PM 43.2592 -123.0753 353° North 283 326 15,300 -1,320 Descending Seattle Center
07:10PM 43.3372 -123.0886 353° North 283 326 14,000 -1,200 Descending Seattle Center
07:11PM 43.4136 -123.1008 353° North 277 319 12,900 -1,140 Descending Seattle Center
07:12PM 43.4989 -123.1161 353° North 259 298 11,700 -1,140 Descending Seattle Center
07:13PM 43.5681 -123.1281 353° North 250 288 10,700 -900 Descending Seattle Center
07:14PM 43.6344 -123.1383 354° North 243 280 9,900 -840 Descending Seattle Center
07:15PM 43.6978 -123.1494 353° North 233 268 9,000 -900 Descending Seattle Center
07:16PM 43.7592 -123.1594 353° North 224 258 8,100 -960 Descending Seattle Center
07:17PM 43.8136 -123.1911 337° Northwest 215 247 7,100 -1,140 Descending Seattle Center
07:18PM 43.8675 -123.2300 333° Northwest 219 252 5,900 -1,080 Descending Seattle Center
07:19PM 43.9217 -123.2678 333° Northwest 219 252 5,000 -600 Descending Seattle Center
07:20PM 43.9778 -123.2914 343° North 217 250 4,700 -660 Descending Seattle Center
07:21PM 44.0358 -123.2961 357° North 212 244 3,700 -960 Descending Seattle Center
07:22PM 44.0950 -123.2925 North 213 245 2,800 -900 Descending Seattle Center